Saint Bonnet de Bellac- Haute Vienne - France
Donnes mto: mardi, 14/08/2012
Date Horaire Temp. E. Hum. E. P.atmo. Pluie Vent Direction Direction Ensoleilleme Solaire P. de rose Temp au vent Rafales
14/08/2012 00:00 16,4 C 76 % 1013,5 hPa 0,0 mm 0,0 km/h (0 Bft) E 90 0 min 0 W/m 12,2 C 16,4 C 0,0 km/h (0 Bft)
14/08/2012 00:10 16,3 C 77 % 1013,5 hPa 0,0 mm 0,0 km/h (0 Bft) E 90 0 min 0 W/m 12,3 C 16,3 C 0,0 km/h (0 Bft)
14/08/2012 00:20 16,3 C 78 % 1013,2 hPa 0,0 mm 0,4 km/h (0 Bft) E-NE 67 0 min 0 W/m 12,5 C 16,3 C 0,4 km/h (0 Bft)
14/08/2012 00:30 16,4 C 80 % 1013,1 hPa 0,0 mm 5,8 km/h (2 Bft) E-SE 112 0 min 0 W/m 12,9 C 16,4 C 7,9 km/h (2 Bft)
14/08/2012 00:40 16,4 C 81 % 1013,2 hPa 0,0 mm 1,8 km/h (1 Bft) E 90 0 min 0 W/m 13,1 C 16,4 C 4,0 km/h (1 Bft)
14/08/2012 00:50 16,3 C 81 % 1013,1 hPa 0,0 mm 0,4 km/h (0 Bft) E 90 0 min 0 W/m 13,0 C 16,3 C 3,6 km/h (1 Bft)
14/08/2012 01:00 16,2 C 81 % 1013,2 hPa 0,0 mm 3,6 km/h (1 Bft) E-SE 112 0 min 0 W/m 12,9 C 16,2 C 7,6 km/h (2 Bft)
14/08/2012 01:10 16,0 C 82 % 1013,2 hPa 0,0 mm 0,0 km/h (0 Bft) SE 135 0 min 0 W/m 12,9 C 16,0 C 0,0 km/h (0 Bft)
14/08/2012 01:20 15,9 C 81 % 1013,1 hPa 0,0 mm 1,4 km/h (1 Bft) E 90 0 min 0 W/m 12,6 C 15,9 C 6,1 km/h (2 Bft)
14/08/2012 01:30 15,8 C 81 % 1013,1 hPa 0,0 mm 0,0 km/h (0 Bft) E-NE 67 0 min 0 W/m 12,5 C 15,8 C 0,0 km/h (0 Bft)
14/08/2012 01:40 15,6 C 81 % 1013,1 hPa 0,0 mm 0,0 km/h (0 Bft) E-NE 67 0 min 0 W/m 12,3 C 15,6 C 0,0 km/h (0 Bft)
14/08/2012 01:50 15,5 C 82 % 1013,1 hPa 0,0 mm 0,0 km/h (0 Bft) E-NE 67 0 min 0 W/m 12,4 C 15,5 C 2,9 km/h (1 Bft)
14/08/2012 02:00 15,4 C 82 % 1013,0 hPa 0,0 mm 0,0 km/h (0 Bft) E-NE 67 0 min 0 W/m 12,3 C 15,4 C 0,0 km/h (0 Bft)
14/08/2012 02:10 15,3 C 82 % 1012,9 hPa 0,0 mm 0,0 km/h (0 Bft) E 90 0 min 0 W/m 12,2 C 15,3 C 0,0 km/h (0 Bft)
14/08/2012 02:20 15,3 C 83 % 1012,8 hPa 0,0 mm 2,2 km/h (1 Bft) E-NE 67 0 min 0 W/m 12,4 C 15,3 C 4,0 km/h (1 Bft)
14/08/2012 02:30 15,3 C 83 % 1012,7 hPa 0,0 mm 0,0 km/h (0 Bft) E-NE 67 0 min 0 W/m 12,4 C 15,3 C 0,0 km/h (0 Bft)
14/08/2012 02:40 15,3 C 84 % 1012,5 hPa 0,0 mm 0,0 km/h (0 Bft) E-NE 67 0 min 0 W/m 12,6 C 15,3 C 0,0 km/h (0 Bft)
14/08/2012 02:50 15,3 C 84 % 1012,4 hPa 0,0 mm 0,7 km/h (0 Bft) E-NE 67 0 min 0 W/m 12,6 C 15,3 C 0,7 km/h (0 Bft)
14/08/2012 03:02 15,2 C 84 % 1012,3 hPa 0,0 mm 0,0 km/h (0 Bft) E 90 0 min 0 W/m 12,5 C 15,2 C 2,9 km/h (1 Bft)
14/08/2012 03:10 15,2 C 84 % 1012,3 hPa 0,0 mm 0,0 km/h (0 Bft) E-NE 67 0 min 0 W/m 12,5 C 15,2 C 0,0 km/h (0 Bft)
14/08/2012 03:20 15,1 C 84 % 1012,2 hPa 0,0 mm 1,4 km/h (1 Bft) E-NE 67 0 min 0 W/m 12,4 C 15,1 C 3,6 km/h (1 Bft)
14/08/2012 03:30 14,9 C 84 % 1012,2 hPa 0,0 mm 1,4 km/h (1 Bft) N 360 0 min 0 W/m 12,2 C 14,9 C 1,4 km/h (1 Bft)
14/08/2012 03:40 14,8 C 84 % 1012,1 hPa 0,0 mm 0,0 km/h (0 Bft) E 90 0 min 0 W/m 12,1 C 14,8 C 0,0 km/h (0 Bft)
14/08/2012 03:50 14,8 C 84 % 1012,0 hPa 0,0 mm 0,4 km/h (0 Bft) E 90 0 min 0 W/m 12,1 C 14,8 C 0,4 km/h (0 Bft)
14/08/2012 04:00 14,7 C 84 % 1011,9 hPa 0,0 mm 0,0 km/h (0 Bft) E-SE 112 0 min 0 W/m 12,0 C 14,7 C 0,0 km/h (0 Bft)
14/08/2012 04:10 14,7 C 84 % 1011,7 hPa 0,0 mm 0,0 km/h (0 Bft) E-NE 67 0 min 0 W/m 12,0 C 14,7 C 3,6 km/h (1 Bft)
14/08/2012 04:20 14,6 C 84 % 1011,6 hPa 0,0 mm 0,0 km/h (0 Bft) E 90 0 min 0 W/m 11,9 C 14,6 C 0,0 km/h (0 Bft)
14/08/2012 04:30 14,6 C 84 % 1011,5 hPa 0,0 mm 0,0 km/h (0 Bft) E-NE 67 0 min 0 W/m 11,9 C 14,6 C 0,0 km/h (0 Bft)
14/08/2012 04:40 14,5 C 85 % 1011,5 hPa 0,0 mm 0,0 km/h (0 Bft) E-NE 67 0 min 0 W/m 12,0 C 14,5 C 0,0 km/h (0 Bft)
14/08/2012 04:50 14,5 C 85 % 1011,4 hPa 0,0 mm 0,0 km/h (0 Bft) E 90 0 min 0 W/m 12,0 C 14,5 C 0,0 km/h (0 Bft)
14/08/2012 05:00 14,6 C 85 % 1011,4 hPa 0,0 mm 0,0 km/h (0 Bft) E 90 0 min 0 W/m 12,1 C 14,6 C 0,0 km/h (0 Bft)
14/08/2012 05:10 14,6 C 85 % 1011,3 hPa 0,0 mm 0,4 km/h (0 Bft) E-NE 67 0 min 0 W/m 12,1 C 14,6 C 0,4 km/h (0 Bft)
14/08/2012 05:20 14,6 C 85 % 1011,0 hPa 0,0 mm 0,4 km/h (0 Bft) E 90 0 min 0 W/m 12,1 C 14,6 C 0,4 km/h (0 Bft)
14/08/2012 05:30 14,5 C 85 % 1011,1 hPa 0,0 mm 0,0 km/h (0 Bft) E 90 0 min 0 W/m 12,0 C 14,5 C 0,0 km/h (0 Bft)
14/08/2012 05:40 14,5 C 85 % 1011,1 hPa 0,0 mm 0,4 km/h (0 Bft) E 90 0 min 0 W/m 12,0 C 14,5 C 0,4 km/h (0 Bft)
14/08/2012 05:50 14,4 C 85 % 1011,1 hPa 0,0 mm 0,0 km/h (0 Bft) E 90 0 min 0 W/m 11,9 C 14,4 C 0,0 km/h (0 Bft)
14/08/2012 06:00 14,3 C 85 % 1011,0 hPa 0,0 mm 0,0 km/h (0 Bft) E-NE 67 0 min 0 W/m 11,8 C 14,3 C 0,0 km/h (0 Bft)
14/08/2012 06:10 14,2 C 85 % 1010,9 hPa 0,0 mm 0,0 km/h (0 Bft) E-NE 67 0 min 0 W/m 11,7 C 14,2 C 0,0 km/h (0 Bft)
14/08/2012 06:20 14,2 C 85 % 1010,8 hPa 0,0 mm 0,0 km/h (0 Bft) E 90 0 min 0 W/m 11,7 C 14,2 C 0,0 km/h (0 Bft)
14/08/2012 06:30 14,3 C 86 % 1010,8 hPa 0,0 mm 1,8 km/h (1 Bft) SE 135 0 min 0 W/m 12,0 C 14,3 C 3,2 km/h (1 Bft)
14/08/2012 06:40 14,4 C 86 % 1010,8 hPa 0,0 mm 1,8 km/h (1 Bft) E 90 0 min 0 W/m 12,1 C 14,4 C 4,0 km/h (1 Bft)
14/08/2012 06:50 14,4 C 86 % 1010,8 hPa 0,0 mm 2,2 km/h (1 Bft) E 90 0 min 0 W/m 12,1 C 14,4 C 2,9 km/h (1 Bft)
14/08/2012 07:00 14,4 C 86 % 1010,7 hPa 0,0 mm 3,2 km/h (1 Bft) E 90 0 min 0 W/m 12,1 C 14,4 C 8,3 km/h (2 Bft)
14/08/2012 07:10 14,4 C 86 % 1010,7 hPa 0,0 mm 1,4 km/h (1 Bft) E 90 0 min 0 W/m 12,1 C 14,4 C 4,3 km/h (1 Bft)
14/08/2012 07:20 14,4 C 86 % 1010,7 hPa 0,0 mm 0,0 km/h (0 Bft) E-SE 112 0 min 0 W/m 12,1 C 14,4 C 0,0 km/h (0 Bft)
14/08/2012 07:30 14,5 C 86 % 1010,7 hPa 0,0 mm 1,4 km/h (1 Bft) E 90 0 min 0 W/m 12,2 C 14,5 C 4,3 km/h (1 Bft)
14/08/2012 07:40 14,6 C 87 % 1010,7 hPa 0,0 mm 0,4 km/h (0 Bft) E 90 0 min 0 W/m 12,5 C 14,6 C 4,0 km/h (1 Bft)
14/08/2012 07:50 14,6 C 87 % 1010,8 hPa 0,0 mm 0,4 km/h (0 Bft) SE 135 0 min 0 W/m 12,5 C 14,6 C 0,4 km/h (0 Bft)
14/08/2012 08:00 14,8 C 87 % 1010,7 hPa 0,0 mm 2,5 km/h (1 Bft) SE 135 0 min 0 W/m 12,7 C 14,8 C 4,0 km/h (1 Bft)
14/08/2012 08:10 15,2 C 87 % 1010,7 hPa 0,0 mm 0,4 km/h (0 Bft) E-SE 112 0 min 0 W/m 13,0 C 15,2 C 0,4 km/h (0 Bft)
14/08/2012 08:20 15,5 C 86 % 1010,7 hPa 0,0 mm 1,4 km/h (1 Bft) E-SE 112 0 min 0 W/m 13,2 C 15,5 C 4,0 km/h (1 Bft)
14/08/2012 08:30 16,0 C 85 % 1010,7 hPa 0,0 mm 1,4 km/h (1 Bft) SE 135 0 min 0 W/m 13,5 C 16,0 C 4,3 km/h (1 Bft)
14/08/2012 08:40 16,4 C 84 % 1010,6 hPa 0,0 mm 0,4 km/h (0 Bft) E 90 0 min 0 W/m 13,7 C 16,4 C 3,2 km/h (1 Bft)
14/08/2012 08:50 16,6 C 84 % 1010,7 hPa 0,0 mm 2,9 km/h (1 Bft) E-SE 112 0 min 0 W/m 13,9 C 16,6 C 4,0 km/h (1 Bft)
14/08/2012 09:00 16,9 C 83 % 1010,5 hPa 0,0 mm 3,2 km/h (1 Bft) E-SE 112 0 min 0 W/m 14,0 C 16,9 C 7,2 km/h (2 Bft)
14/08/2012 09:10 17,3 C 82 % 1010,6 hPa 0,0 mm 5,4 km/h (2 Bft) E-SE 112 0 min 0 W/m 14,2 C 17,3 C 6,8 km/h (2 Bft)
14/08/2012 09:20 17,9 C 82 % 1010,5 hPa 0,0 mm 2,2 km/h (1 Bft) E-SE 112 0 min 0 W/m 14,8 C 17,9 C 4,3 km/h (1 Bft)
14/08/2012 09:30 18,5 C 80 % 1010,6 hPa 0,0 mm 4,0 km/h (1 Bft) E 90 0 min 0 W/m 15,0 C 18,5 C 6,8 km/h (2 Bft)
14/08/2012 09:40 19,4 C 79 % 1010,6 hPa 0,0 mm 2,2 km/h (1 Bft) E 90 0 min 0 W/m 15,7 C 19,4 C 7,6 km/h (2 Bft)
14/08/2012 09:50 20,4 C 77 % 1010,6 hPa 0,0 mm 1,8 km/h (1 Bft) E-SE 112 0 min 0 W/m 16,2 C 20,4 C 4,0 km/h (1 Bft)
14/08/2012 10:00 21,3 C 75 % 1010,9 hPa 0,0 mm 1,8 km/h (1 Bft) E 90 0 min 0 W/m 16,7 C 21,3 C 1,8 km/h (1 Bft)
14/08/2012 10:10 21,8 C 74 % 1011,0 hPa 0,0 mm 0,0 km/h (0 Bft) E-SE 112 0 min 0 W/m 17,0 C 21,8 C 0,0 km/h (0 Bft)
14/08/2012 10:20 22,4 C 72 % 1011,1 hPa 0,0 mm 0,0 km/h (0 Bft) E-SE 112 0 min 0 W/m 17,1 C 22,4 C 0,0 km/h (0 Bft)
14/08/2012 10:30 22,9 C 71 % 1011,0 hPa 0,0 mm 0,0 km/h (0 Bft) E-SE 112 0 min 0 W/m 17,4 C 22,9 C 0,0 km/h (0 Bft)
14/08/2012 10:40 23,5 C 69 % 1010,9 hPa 0,0 mm 0,0 km/h (0 Bft) E 90 0 min 0 W/m 17,5 C 23,5 C 0,0 km/h (0 Bft)
14/08/2012 10:50 24,6 C 66 % 1011,0 hPa 0,0 mm 1,8 km/h (1 Bft) SE 135 0 min 0 W/m 17,8 C 24,6 C 7,2 km/h (2 Bft)
14/08/2012 11:00 25,6 C 62 % 1011,3 hPa 0,0 mm 4,3 km/h (1 Bft) S 180 0 min 0 W/m 17,8 C 25,6 C 7,9 km/h (2 Bft)
14/08/2012 11:10 26,1 C 58 % 1011,3 hPa 0,0 mm 1,4 km/h (1 Bft) S-SE 157 0 min 0 W/m 17,2 C 26,1 C 1,4 km/h (1 Bft)
14/08/2012 11:20 26,5 C 57 % 1011,4 hPa 0,0 mm 1,8 km/h (1 Bft) S 180 0 min 0 W/m 17,3 C 26,5 C 4,0 km/h (1 Bft)
14/08/2012 11:30 26,8 C 55 % 1011,4 hPa 0,0 mm 2,9 km/h (1 Bft) SE 135 0 min 0 W/m 17,0 C 26,8 C 2,9 km/h (1 Bft)
14/08/2012 11:40 27,1 C 55 % 1011,3 hPa 0,0 mm 2,2 km/h (1 Bft) SE 135 0 min 0 W/m 17,3 C 27,1 C 2,2 km/h (1 Bft)
14/08/2012 11:50 27,4 C 53 % 1011,4 hPa 0,0 mm 5,0 km/h (1 Bft) S-SE 157 0 min 0 W/m 17,0 C 27,4 C 6,8 km/h (2 Bft)
14/08/2012 12:00 27,6 C 53 % 1011,1 hPa 0,0 mm 1,4 km/h (1 Bft) E-SE 112 0 min 0 W/m 17,1 C 27,6 C 3,6 km/h (1 Bft)
14/08/2012 12:10 28,0 C 52 % 1011,2 hPa 0,0 mm 0,0 km/h (0 Bft) E-SE 112 0 min 0 W/m 17,2 C 28,0 C 0,0 km/h (0 Bft)
14/08/2012 12:20 28,3 C 52 % 1011,1 hPa 0,0 mm 0,0 km/h (0 Bft) E-NE 67 0 min 0 W/m 17,5 C 28,3 C 0,0 km/h (0 Bft)
14/08/2012 12:30 28,6 C 50 % 1011,1 hPa 0,0 mm 6,8 km/h (2 Bft) E 90 0 min 0 W/m 17,1 C 28,6 C 8,3 km/h (2 Bft)
14/08/2012 12:40 28,9 C 50 % 1011,0 hPa 0,0 mm 1,4 km/h (1 Bft) E-NE 67 0 min 0 W/m 17,4 C 28,9 C 6,5 km/h (2 Bft)
14/08/2012 12:50 29,6 C 48 % 1011,0 hPa 0,0 mm 3,2 km/h (1 Bft) E-NE 67 0 min 0 W/m 17,4 C 29,6 C 3,2 km/h (1 Bft)
14/08/2012 13:00 29,9 C 47 % 1010,8 hPa 0,0 mm 2,2 km/h (1 Bft) SE 135 0 min 0 W/m 17,3 C 29,9 C 7,9 km/h (2 Bft)
14/08/2012 13:10 30,2 C 45 % 1010,8 hPa 0,0 mm 10,8 km/h (2 Bft) E-SE 112 0 min 0 W/m 16,9 C 30,2 C 13,0 km/h (3 Bft)
14/08/2012 13:20 30,1 C 46 % 1010,7 hPa 0,0 mm 6,5 km/h (2 Bft) E-NE 67 0 min 0 W/m 17,2 C 30,1 C 11,2 km/h (2 Bft)
14/08/2012 13:30 30,1 C 45 % 1010,7 hPa 0,0 mm 3,6 km/h (1 Bft) E 90 0 min 0 W/m 16,8 C 30,1 C 6,5 km/h (2 Bft)
14/08/2012 13:40 29,8 C 45 % 1010,6 hPa 0,0 mm 5,0 km/h (1 Bft) E 90 0 min 0 W/m 16,6 C 29,8 C 5,0 km/h (1 Bft)
14/08/2012 13:50 30,1 C 45 % 1010,6 hPa 0,0 mm 4,3 km/h (1 Bft) SE 135 0 min 0 W/m 16,8 C 30,1 C 9,7 km/h (2 Bft)
14/08/2012 14:00 30,4 C 45 % 1010,5 hPa 0,0 mm 4,3 km/h (1 Bft) E 90 0 min 0 W/m 17,1 C 30,4 C 7,6 km/h (2 Bft)
14/08/2012 14:10 30,4 C 44 % 1010,4 hPa 0,0 mm 2,2 km/h (1 Bft) E-NE 67 0 min 0 W/m 16,7 C 30,4 C 2,9 km/h (1 Bft)
14/08/2012 14:20 30,4 C 44 % 1010,4 hPa 0,0 mm 4,0 km/h (1 Bft) S-SE 157 0 min 0 W/m 16,7 C 30,4 C 6,8 km/h (2 Bft)
14/08/2012 14:30 30,4 C 43 % 1010,2 hPa 0,0 mm 2,5 km/h (1 Bft) S 180 0 min 0 W/m 16,4 C 30,4 C 4,3 km/h (1 Bft)
14/08/2012 14:40 30,6 C 44 % 1010,1 hPa 0,0 mm 3,6 km/h (1 Bft) E-SE 112 0 min 0 W/m 16,9 C 30,6 C 9,4 km/h (2 Bft)
14/08/2012 14:50 31,3 C 43 % 1009,9 hPa 0,0 mm 2,5 km/h (1 Bft) N-NE 22 0 min 0 W/m 17,2 C 31,3 C 6,5 km/h (2 Bft)
14/08/2012 15:00 31,6 C 42 % 1009,8 hPa 0,0 mm 2,9 km/h (1 Bft) NE 45 0 min 0 W/m 17,1 C 31,6 C 4,0 km/h (1 Bft)
14/08/2012 15:10 31,9 C 41 % 1009,7 hPa 0,0 mm 1,4 km/h (1 Bft) N-NE 22 0 min 0 W/m 17,0 C 31,9 C 6,5 km/h (2 Bft)
14/08/2012 15:20 31,9 C 41 % 1009,6 hPa 0,0 mm 4,0 km/h (1 Bft) E-SE 112 0 min 0 W/m 17,0 C 31,9 C 4,0 km/h (1 Bft)
14/08/2012 15:30 32,0 C 42 % 1009,6 hPa 0,0 mm 1,8 km/h (1 Bft) N-NE 22 0 min 0 W/m 17,4 C 32,0 C 1,8 km/h (1 Bft)
14/08/2012 15:40 32,0 C 40 % 1009,4 hPa 0,0 mm 1,8 km/h (1 Bft) S-SO 202 0 min 0 W/m 16,7 C 32,0 C 4,3 km/h (1 Bft)
14/08/2012 15:50 31,8 C 41 % 1009,4 hPa 0,0 mm 4,3 km/h (1 Bft) SE 135 0 min 0 W/m 16,9 C 31,8 C 6,8 km/h (2 Bft)
14/08/2012 16:00 31,6 C 41 % 1009,3 hPa 0,0 mm 4,7 km/h (1 Bft) S-SE 157 0 min 0 W/m 16,7 C 31,6 C 9,4 km/h (2 Bft)
14/08/2012 16:10 32,1 C 40 % 1009,3 hPa 0,0 mm 6,1 km/h (2 Bft) S-SO 202 0 min 0 W/m 16,8 C 32,1 C 10,8 km/h (2 Bft)
14/08/2012 16:20 32,4 C 40 % 1009,1 hPa 0,0 mm 4,3 km/h (1 Bft) S-SO 202 0 min 0 W/m 17,0 C 32,4 C 14,0 km/h (3 Bft)
14/08/2012 16:30 32,4 C 38 % 1009,1 hPa 0,0 mm 9,4 km/h (2 Bft) O-SO 247 0 min 0 W/m 16,2 C 32,4 C 9,4 km/h (2 Bft)
14/08/2012 16:40 32,3 C 37 % 1009,0 hPa 0,0 mm 5,8 km/h (2 Bft) S-SE 157 0 min 0 W/m 15,7 C 32,3 C 9,0 km/h (2 Bft)
14/08/2012 16:50 32,2 C 37 % 1009,0 hPa 0,0 mm 5,4 km/h (2 Bft) O-SO 247 0 min 0 W/m 15,6 C 32,2 C 7,9 km/h (2 Bft)
14/08/2012 17:00 32,1 C 37 % 1008,9 hPa 0,0 mm 10,1 km/h (2 Bft) O-SO 247 0 min 0 W/m 15,5 C 32,1 C 14,8 km/h (3 Bft)
14/08/2012 17:10 32,1 C 39 % 1008,9 hPa 0,0 mm 4,7 km/h (1 Bft) O-SO 247 0 min 0 W/m 16,4 C 32,1 C 9,7 km/h (2 Bft)
14/08/2012 17:20 31,9 C 39 % 1008,8 hPa 0,0 mm 5,8 km/h (2 Bft) S-SO 202 0 min 0 W/m 16,2 C 31,9 C 8,6 km/h (2 Bft)
14/08/2012 17:30 31,9 C 39 % 1008,8 hPa 0,0 mm 3,2 km/h (1 Bft) O-SO 247 0 min 0 W/m 16,2 C 31,9 C 10,4 km/h (2 Bft)
14/08/2012 17:40 31,9 C 39 % 1008,7 hPa 0,0 mm 2,2 km/h (1 Bft) O-SO 247 0 min 0 W/m 16,2 C 31,9 C 2,9 km/h (1 Bft)
14/08/2012 17:50 31,8 C 39 % 1008,7 hPa 0,0 mm 4,3 km/h (1 Bft) SO 225 0 min 0 W/m 16,1 C 31,8 C 4,3 km/h (1 Bft)
14/08/2012 18:00 31,3 C 40 % 1008,7 hPa 0,0 mm 2,5 km/h (1 Bft) S-SO 202 0 min 0 W/m 16,1 C 31,3 C 6,5 km/h (2 Bft)
14/08/2012 18:10 30,9 C 41 % 1008,7 hPa 0,0 mm 2,2 km/h (1 Bft) SO 225 0 min 0 W/m 16,1 C 30,9 C 3,2 km/h (1 Bft)
14/08/2012 18:20 30,4 C 41 % 1008,7 hPa 0,0 mm 6,8 km/h (2 Bft) SO 225 0 min 0 W/m 15,6 C 30,4 C 10,8 km/h (2 Bft)
14/08/2012 18:30 30,3 C 41 % 1008,6 hPa 0,0 mm 4,3 km/h (1 Bft) S-SO 202 0 min 0 W/m 15,6 C 30,3 C 4,3 km/h (1 Bft)
14/08/2012 18:40 30,3 C 41 % 1008,7 hPa 0,0 mm 6,8 km/h (2 Bft) SO 225 0 min 0 W/m 15,6 C 30,3 C 13,0 km/h (3 Bft)
14/08/2012 18:50 30,1 C 42 % 1008,5 hPa 0,0 mm 4,3 km/h (1 Bft) SO 225 0 min 0 W/m 15,7 C 30,1 C 7,6 km/h (2 Bft)
14/08/2012 19:00 30,1 C 42 % 1008,4 hPa 0,0 mm 2,5 km/h (1 Bft) SO 225 0 min 0 W/m 15,7 C 30,1 C 4,0 km/h (1 Bft)
14/08/2012 19:10 30,1 C 42 % 1008,4 hPa 0,0 mm 5,0 km/h (1 Bft) S-SO 202 0 min 0 W/m 15,7 C 30,1 C 6,5 km/h (2 Bft)
14/08/2012 19:20 29,9 C 43 % 1008,4 hPa 0,0 mm 3,6 km/h (1 Bft) S-SO 202 0 min 0 W/m 15,9 C 29,9 C 7,2 km/h (2 Bft)
14/08/2012 19:30 29,8 C 44 % 1008,5 hPa 0,0 mm 2,5 km/h (1 Bft) S-SO 202 0 min 0 W/m 16,2 C 29,8 C 6,8 km/h (2 Bft)
14/08/2012 19:40 29,6 C 43 % 1008,4 hPa 0,0 mm 3,2 km/h (1 Bft) SO 225 0 min 0 W/m 15,7 C 29,6 C 6,5 km/h (2 Bft)
14/08/2012 19:50 29,5 C 43 % 1008,4 hPa 0,0 mm 3,2 km/h (1 Bft) O-SO 247 0 min 0 W/m 15,6 C 29,5 C 3,2 km/h (1 Bft)
14/08/2012 20:00 29,4 C 42 % 1008,5 hPa 0,0 mm 1,8 km/h (1 Bft) O-SO 247 0 min 0 W/m 15,1 C 29,4 C 1,8 km/h (1 Bft)
_ Min-Heure 06:20 17:00 19:50 - 12:20 - - - - 06:20 06:20 12:20
Minimum _ 14,2 C 37 % 1008,4 hPa - 0,0 km/h (0 Bft) - - - - 11,7 C 14,2 C 0,0 km/h (0 Bft)
_ Max-Heure 16:30 08:10 00:10 20:00 13:10 - - 20:00 20:00 10:50 16:30 17:00
Maximum _ 32,4 C 87 % 1013,5 hPa 0,0 mm 10,8 km/h
E-SE (2 Bft)
- - 0 min 0 W/m 17,8 C 32,4 C 14,8 km/h
O-SO (3 Bft)
Moyenne _ 22,6 C 65 % 1010,8 hPa #0,0 mm 2,3 km/h (1 Bft) E - #0 min. 0 W/m 14,7 C 22,6 C 4,2 km/h (1 Bft)
Saint Bonnet de Bellac- Haute Vienne - France